This is the latest recevied weather packets stored in our database for station/object W5MAI. If no packets are shown the sender has not sent any weather packets the latest 10 day(s).
| Time | Temp. | Humidity | Pressure | Rain* | Wind** | Luminosity | Snow |
|---|---|---|---|---|---|---|---|
| 1788114231 | 32.78° C | 56% | 1018.4 hPa | 0 mm | - | 1020 W/m² | - |
| 1788113656 | 32.78° C | 55% | 1018.4 hPa | 0 mm | - | 953 W/m² | - |
| 1788113003 | 31.67° C | 59% | 1018.7 hPa | 0 mm | - | 1044 W/m² | - |
| 1788112432 | 32.22° C | 57% | 1018.7 hPa | 0 mm | - | 930 W/m² | - |
| 1788111861 | 31.67° C | 58% | 1019 hPa | 0 mm | - | 923 W/m² | - |
| 1788111223 | 31.67° C | 59% | 1019.1 hPa | 0 mm | - | 902 W/m² | - |
| 1788110653 | 31.11° C | 60% | 1019.3 hPa | 0 mm | - | 886 W/m² | - |
| 1788110007 | 31.11° C | 63% | 1019.2 hPa | 0 mm | - | 856 W/m² | - |
| 1788109442 | 31.11° C | 63% | 1019.4 hPa | 0 mm | - | 840 W/m² | - |
| 1788108862 | 31.11° C | 62% | 1019.5 hPa | 0 mm | - | 812 W/m² | - |
| 1788105818 | 30° C | 67% | 1019.5 hPa | 0 mm | - | 733 W/m² | - |
| 1788105248 | 30° C | 68% | 1019.5 hPa | 0 mm | - | 664 W/m² | - |
| 1788104608 | 29.44° C | 70% | 1019.5 hPa | 0 mm | - | 671 W/m² | - |
| 1788104044 | 28.89° C | 71% | 1019.4 hPa | 0 mm | - | 624 W/m² | - |
| 1788103417 | 29.44° C | 72% | 1019.4 hPa | 0 mm | - | 589 W/m² | - |
| 1788102837 | 28.89° C | 74% | 1019.3 hPa | 0 mm | - | 504 W/m² | - |
| 1788102204 | 28.33° C | 75% | 1019.4 hPa | 0 mm | - | 533 W/m² | - |
| 1788101623 | 27.78° C | 77% | 1019.3 hPa | 0 mm | - | 494 W/m² | - |
| 1788101043 | 27.78° C | 78% | 1019.4 hPa | 0 mm | - | 454 W/m² | - |
| 1788100455 | 27.22° C | 80% | 1019.4 hPa | 0 mm | - | 417 W/m² | - |
| 1788096828 | 23.33° C | 93% | 1019.1 hPa | 0 mm | - | 155 W/m² | - |
| 1788096253 | 22.78° C | 93% | 1019.1 hPa | 0 mm | - | 56 W/m² | - |
| 1788095622 | 22.22° C | 93% | 1019 hPa | 0 mm | - | 44 W/m² | - |
| 1788095047 | 22.22° C | 93% | 1019 hPa | 0 mm | - | 47 W/m² | - |
| 1788093825 | 21.67° C | 93% | 1018.8 hPa | 0 mm | - | 26 W/m² | - |
* Rain latest hour (hover to see other rain measurements)
** Current wind speed in m/s (hover to see current wind gust speed)